Showing default

COSMOS 2432 (GLONASS), 32276

Orbit data source: Space-Track

COSMOS 2432 (GLONASS), 32276 is a Commonwealth of Independent States-origin payload satellite in MEO that was launched on Fri, 26 Oct 2007 UTC via a PROTON-K/DM-2 launch vehicle from the Tyuratam Missile And Space Complex (TTMTR). Payload-class satellites include a variety of spacecraft equipped with specific instruments for various scientific and technological missions. These include communications satellites like Starlink; space stations such as the ISS; scientific satellites like the Hubble; Earth observation satellites from companies like Planet Labs, Umbra, and HawkEye 360; GPS; miniature CubeSats for education and research; and military/defense satellites.

Loading next visibility...
Identifier
32276, 2007-052B
Orbit
MEO
Country
Flag of CISCIS
Related business
Manufacturer
Resehetnev ISS
Mission
On reserve Defense Navigation
Bus & Motor
URAGAN, Unknown motor
Mass
1,450 kg wet, ~1,200 kg dry
Launch date (UTC)
2007-10-26 (19 years ago)
Launch vehicle
PROTON-K/DM-2
Launch site
Tyuratam Missile And Space Complex (TTMTR)
Object type
Payload
Rocket body
Debris
Shape & HBR
Cyl + 1 Ant + 2 Pan, 3.9 m
Radar Cross Section
8.467 m², Large (>1 m²)

Expand to show TLE details & history
Last TLE update: 3 days ago

TLE from 3 days ago
0 COSMOS 2432 (GLONASS)
1 32276U 07052B   26124.12727124 -.00000043  00000-0  00000-0 0  9993
2 32276  65.6177 317.5429 0008792 337.7082 213.2398  2.13103237144145
Epoch: 2026-05-04T03:03Z
TLE epoch observation values (Epoch: 2026-05-04T03:03:16.235Z)
Latitude
-9.96675°
Longitude
-125.72634°
Altitude
19,150.986 km
Speed
3.95 km/s
True Right ascension
09h 28m 26s
True Declination
-9° 57' 01"
Sunlit
Object was in daylight at epoch
Visualization orbit readout
Latitude
Unknown
Longitude
Unknown
Altitude
Unknown
Speed
Unknown
Apparent Right ascension
Unknown
Apparent Declination
Unknown
Sunlit
N/A
Visualization observer readout
Local Sidereal Time
01:07:49
Azimuth
Unknown
Elevation
Unknown
Doppler factor
Unknown
Orbital elements
Apogee altitude
19,151.809 km
Perigee altitude
19,106.956 km
Semi-major axis
25,507.519 km
Eccentricity
0.00088
Inclination
65.6177°
RAAN
317.5429°
Arg. of periapsis
337.7082°
True anomaly
213.18463°
Mean anomaly
213.2398°
Eccentric anomaly
213.21221°
Mean motion
0.53277 °/min
Orbital period
675.71 mins
BSTAR
0
Loading maneuver chart data...
Computing Atmospheric mass density...
Loading historical data...
Loading historical data...
Loading historical data...
Loading historical data...
Loading historical data...
Loading historical data...
Loading historical data...

Documentation

Showing up to 5 results
|